Please be sure to check the latest weather conditions by clicking the link and viewing our local weather information!

Check Weather

Welcome to Lakeway Airpark (3R9)

FromTheAir

We’re a community airpark nestled within the town of Lakeway, Texas (17 miles northwest of downtown Austin).

Lakeway Airpark, Inc. was formed by Lakeway residents and interested parties to own and manage Lakeway Airpark (3R9).

The Airpark is a privately owned not for profit public use airport for residents and guests of Lakeway. No public funds are used and the airport is supported by fees and fuel sales at the airport.

Lakeway Airpark is an unmanned facility open for use from Sunrise to Sunset seven days a week. Takeoffs and landings are not permitted at night, between Sunset and Sunrise, by City Ordinance.

Quick Weather Info

Available data for KAUS from the past 2 hours

metar

  • KAUS 241653Z 20010KT 10SM SCT030 SCT037 31/23 A3013 RMK AO2 SLP191 T03110233
  • KAUS 241553Z 21010KT 10SM SCT018 29/24 A3013 RMK AO2 SLP193 T02890239

taf

  • KAUS 241314Z 2413/2518 19010KT P6SM BKN015 FM241530 19011KT P6SM SCT040 BKN250 FM242300 18009KT P6SM FEW050 FM250800 18005KT P6SM BKN012 FM251600 19011KT P6SM SCT040 BKN250